Havre, MT

6:47 AM MDT on July 22, 2017 (GMT -0600)
Havre City-County

Weather History for KHVR - May, 2014

Change the Weather History Date:

Friday, May 2, 2014

  Actual Average Record
Temperature  
Mean Temperature 49 °F 50 °F  
Max Temperature 58 °F 64 °F 88 °F (1957)
Min Temperature 40 °F 35 °F 14 °F (1954)
Degree Days  
Heating Degree Days 16 16  
Month to date heating degree days 27 32  
Since 1 July heating degree days 8040 7769  
Cooling Degree Days 0 0  
Month to date cooling degree days 0 0  
Year to date cooling degree days 0 1  
Moisture  
Dew Point 41 °F    
Average Humidity 72    
Maximum Humidity 93    
Minimum Humidity 51    
Precipitation  
Precipitation 0.22 in 0.04 in 2.48 in (1899)
Month to date precipitation 0.22 0.08  
Year to date precipitation 2.94 2.07  
Snow  
Snow 0.00 in 0.00 in 24.80 in (1899)
Month to date snowfall 0.0 0.1  
Since 1 July snowfall 44.4 37.3  
Snow Depth 0.00 in    
Sea Level Pressure  
Sea Level Pressure 30.02 in    
Wind  
Wind Speed 9 mph (NE)    
Max Wind Speed 21 mph    
Max Gust Speed 24 mph    
Visibility 9 miles    
Events Rain    
T = Trace of Precipitation, MM = Missing Value Source: NWS Daily Summary

Daily Weather History Graph

Daily Weather History Graph

Search for Another Location

Airport or City:

Trip Planner

Search our weather history database for the weather conditions in past years. The results will help you decide how hot, cold, wet, or windy it might be!

Date:

Astronomy

May. 02, 2014 Rise Set
Actual Time 5:57 AM MDT 8:35 PM MDT
Civil Twilight 5:22 AM MDT 9:10 PM MDT
Nautical Twilight 4:37 AM MDT 9:55 PM MDT
Astronomical Twilight 3:45 AM MDT 10:49 PM MDT
Moon 8:32 AM MDT (5/2) No Moon Set
Length of Visible Light 15h 48m
Length of Day
14h 37m
Waxing Crescent, 13% of the Moon is Illuminated
May 2
Waxing Crescent
May 6
First Quarter
May 14
Full
May 21
Last Quarter
May 28
New

Hourly Weather History & Observations

Time (MDT) Temp. Windchill Dew Point Humidity Pressure Visibility Wind Dir Wind Speed Gust Speed Precip Events Conditions
12:53 AM 57.0 °F - 39.9 °F 53% 29.93 in 10.0 mi ENE 16.1 mph - N/A   Partly Cloudy
1:53 AM 55.9 °F - 41.0 °F 57% 29.91 in 10.0 mi ENE 17.3 mph - N/A   Mostly Cloudy
2:53 AM 55.0 °F - 41.0 °F 59% 29.93 in 10.0 mi ENE 12.7 mph - N/A   Overcast
3:53 AM 53.1 °F - 42.1 °F 66% 29.93 in 10.0 mi NE 12.7 mph - N/A   Overcast
4:53 AM 51.1 °F - 42.1 °F 71% 29.93 in 10.0 mi ENE 11.5 mph - N/A   Partly Cloudy
5:53 AM 51.1 °F - 43.0 °F 74% 29.94 in 10.0 mi East 12.7 mph - N/A   Overcast
6:53 AM 50.0 °F - 45.0 °F 83% 29.95 in 10.0 mi East 6.9 mph - 0.00 in Rain Light Rain
7:53 AM 51.1 °F - 46.0 °F 83% 29.96 in 10.0 mi East 8.1 mph - 0.00 in   Overcast
8:53 AM 51.1 °F - 45.0 °F 80% 29.99 in 10.0 mi East 8.1 mph - 0.00 in   Overcast
9:53 AM 50.0 °F - 46.0 °F 86% 30.01 in 9.0 mi East 8.1 mph - 0.03 in Rain Light Rain
10:18 AM 46.9 °F - 43.0 °F 86% 30.02 in 5.0 mi NE 12.7 mph - 0.03 in Rain Rain
10:50 AM 46.4 °F 40.7 °F 44.6 °F 93% 30.04 in 7.0 mi NE 12.7 mph - 0.08 in Rain Light Rain
10:53 AM 46.9 °F - 44.1 °F 90% 30.05 in 8.0 mi NNE 11.5 mph - 0.08 in Rain Light Rain
11:00 AM 46.9 °F - 44.1 °F 90% 30.05 in 8.0 mi NE 12.7 mph - 0.01 in Rain Light Rain
11:15 AM 46.9 °F - 43.0 °F 86% 30.05 in 9.0 mi NE 11.5 mph - 0.02 in Rain Light Rain
11:53 AM 46.9 °F - 44.1 °F 90% 30.06 in 6.0 mi NNE 5.8 mph - 0.04 in Rain Light Rain
12:53 PM 48.0 °F - 42.1 °F 80% 30.06 in 7.0 mi Calm Calm - 0.03 in Rain Light Rain
1:53 PM 48.0 °F - 43.0 °F 83% 30.06 in 10.0 mi Calm Calm - 0.01 in Rain Light Rain
2:39 PM 46.9 °F - 43.0 °F 86% 30.04 in 5.0 mi NNE 6.9 mph - 0.01 in Rain Rain
2:53 PM 46.9 °F - 44.1 °F 90% 30.06 in 9.0 mi NNE 11.5 mph - 0.02 in Rain Light Rain
3:08 PM 46.9 °F - 43.0 °F 86% 30.04 in 10.0 mi NNE 13.8 mph - 0.00 in Rain Light Rain
3:17 PM 46.9 °F - 42.1 °F 83% 30.04 in 10.0 mi North 13.8 mph - 0.00 in   Overcast
3:53 PM 46.9 °F - 41.0 °F 80% 30.06 in 10.0 mi NNE 10.4 mph - 0.00 in Rain Light Rain
4:05 PM 46.9 °F - 41.0 °F 80% 30.04 in 10.0 mi NNE 11.5 mph - 0.00 in   Overcast
4:24 PM 46.9 °F - 39.0 °F 74% 30.03 in 10.0 mi NNE 12.7 mph - 0.00 in   Overcast
4:53 PM 46.9 °F - 39.9 °F 77% 30.05 in 10.0 mi NNE 9.2 mph - 0.00 in Rain Light Rain
5:53 PM 46.4 °F 42.4 °F 39.2 °F 76% 30.03 in 10.0 mi NE 8.1 mph - N/A Rain Light Rain
6:41 PM 46.0 °F 42.5 °F 41.0 °F 83% 30.03 in 10.0 mi NE 6.9 mph - 0.01 in Rain Light Rain
6:49 PM 46.4 °F 42.4 °F 39.2 °F 76% 30.02 in 10.0 mi NE 8.1 mph - 0.01 in Rain Light Rain
6:53 PM 46.0 °F 41.4 °F 39.9 °F 79% 30.05 in 10.0 mi NE 9.2 mph - 0.01 in Rain Light Rain
7:53 PM 45.0 °F 40.1 °F 39.0 °F 80% 30.05 in 10.0 mi NNE 9.2 mph - 0.00 in   Overcast
8:53 PM 43.0 °F 38.2 °F 36.0 °F 76% 30.06 in 10.0 mi NE 8.1 mph - N/A   Overcast
9:53 PM 43.0 °F 40.3 °F 37.0 °F 80% 30.07 in 10.0 mi ENE 4.6 mph - N/A   Overcast
10:33 PM 43.0 °F 41.3 °F 36.0 °F 76% 30.04 in 10.0 mi NE 3.5 mph - N/A   Overcast
10:53 PM 43.0 °F - 37.0 °F 80% 30.08 in 10.0 mi Calm Calm - N/A   Overcast
11:02 PM 43.0 °F - 37.0 °F 80% 30.04 in 10.0 mi Calm Calm - N/A   Overcast
11:11 PM 43.0 °F 41.3 °F 37.0 °F 80% 30.04 in 10.0 mi NE 3.5 mph - N/A   Overcast
11:20 PM 43.0 °F 41.3 °F 37.9 °F 82% 30.05 in 10.0 mi NE 3.5 mph - N/A   Overcast
11:33 PM 43.0 °F 39.5 °F 37.0 °F 80% 30.04 in 10.0 mi ENE 5.8 mph - N/A   Overcast
11:53 PM 42.1 °F 36.1 °F 37.0 °F 82% 30.08 in 10.0 mi NE 10.4 mph - N/A   Overcast